Weather History for KNCA - October, 2012

Change the Weather History Date:

Saturday, October 20, 2012

  Actual Average Record
Temperature  
Mean Temperature 63 °F -  
Max Temperature 75 °F 70 °F 84 °F (2005)
Min Temperature 51 °F 49 °F 41 °F (2008)
Degree Days  
Heating Degree Days 2    
Growing Degree Days 13 (Base 50)    
Moisture  
Dew Point 47 °F    
Average Humidity 65    
Maximum Humidity 90    
Minimum Humidity 29    
Precipitation  
Precipitation 0.00 in - - ()
Sea Level Pressure  
Sea Level Pressure 29.85 in    
Wind  
Wind Speed 5 mph (WSW)    
Max Wind Speed 13 mph    
Max Gust Speed -    
Visibility 10 miles    
Events      
Averages and records for this station are not official NWS values.
T = Trace of Precipitation, MM = Missing Value Source: NWS Daily Summary

Daily Weather History Graph

Daily Weather History Graph

Search for Another Location

Airport or City:

Trip Planner

Search our weather history database for the weather conditions in past years. The results will help you decide how hot, cold, wet, or windy it might be!

Date:

Astronomy

Oct. 20, 2012 Rise Set
Actual Time 7:20 AM EDT 6:28 PM EDT
Civil Twilight 6:54 AM EDT 6:53 PM EDT
Nautical Twilight 6:25 AM EDT 7:23 PM EDT
Astronomical Twilight 5:55 AM EDT 7:52 PM EDT
Moon 12:47 PM EDT (10/20) 11:18 PM EDT (10/20)
Length of Visible Light 11h 59m
Length of Day
11h 08m
Waxing Crescent, 34% of the Moon is Illuminated
Oct 20
Waxing Crescent
Oct 21
First Quarter
Oct 29
Full
Nov 6
Last Quarter
Nov 13
New

Hourly Weather History & Observations

Time (EDT) Temp. Dew Point Humidity Pressure Visibility Wind Dir Wind Speed Gust Speed Precip Events Conditions
12:56 AM 57.9 °F 51.1 °F 78% 29.83 in 10.0 mi Calm Calm - N/A   Clear
1:56 AM 55.9 °F 50.0 °F 80% 29.82 in 10.0 mi SW 3.5 mph - N/A   Clear
2:56 AM 54.0 °F 48.9 °F 83% 29.82 in 10.0 mi West 6.9 mph - N/A   Clear
3:56 AM 54.0 °F 48.9 °F 83% 29.81 in 10.0 mi WSW 3.5 mph - N/A   Clear
4:56 AM 52.0 °F 48.0 °F 86% 29.81 in 10.0 mi WSW 5.8 mph - N/A   Clear
5:56 AM 51.1 °F 46.9 °F 86% 29.82 in 10.0 mi SW 3.5 mph - N/A   Clear
6:56 AM 52.0 °F 46.9 °F 83% 29.85 in 10.0 mi WSW 4.6 mph - N/A   Clear
7:56 AM 52.0 °F 46.9 °F 83% 29.85 in 10.0 mi WSW 5.8 mph - N/A   Clear
8:56 AM 57.9 °F 48.9 °F 72% 29.86 in 10.0 mi WSW 4.6 mph - N/A   Clear
9:56 AM 64.0 °F 46.9 °F 54% 29.86 in 10.0 mi West 6.9 mph - N/A   Clear
10:56 AM 69.1 °F 44.1 °F 40% 29.86 in 10.0 mi WSW 5.8 mph - N/A   Clear
11:56 AM 73.0 °F 44.1 °F 35% 29.86 in 10.0 mi WSW 11.5 mph - N/A   Clear
12:56 PM 73.9 °F 39.9 °F 29% 29.84 in 10.0 mi SW 10.4 mph - N/A   Clear
1:56 PM 75.0 °F 41.0 °F 29% 29.82 in 10.0 mi WSW 12.7 mph - N/A   Clear
2:56 PM 73.9 °F 41.0 °F 30% 29.81 in 10.0 mi WSW 12.7 mph - N/A   Clear
3:56 PM 73.9 °F 43.0 °F 33% 29.81 in 10.0 mi WSW 12.7 mph - N/A   Clear
4:56 PM 73.0 °F 43.0 °F 34% 29.82 in 10.0 mi SW 5.8 mph - N/A   Clear
5:56 PM 69.1 °F 48.0 °F 47% 29.83 in 10.0 mi West 4.6 mph - N/A   Clear
6:56 PM 63.0 °F 50.0 °F 63% 29.86 in 10.0 mi West 4.6 mph - N/A   Clear
7:56 PM 57.9 °F 53.1 °F 84% 29.88 in 10.0 mi Calm Calm - N/A   Clear
8:56 PM 57.0 °F 50.0 °F 77% 29.90 in 10.0 mi WSW 4.6 mph - N/A   Clear
9:56 PM 55.0 °F 51.1 °F 86% 29.92 in 10.0 mi Calm Calm - N/A   Clear
10:56 PM 54.0 °F 51.1 °F 90% 29.93 in 10.0 mi Calm Calm - N/A   Clear
11:56 PM 53.1 °F 48.9 °F 86% 29.94 in 10.0 mi WNW 4.6 mph - N/A   Clear